SP8NFE-1 Weather Reports


Display with metric or nautical units.
time (UTC)temp
F
wind
direction
speed
MPH
gust
MPH
rain 1hr
in
rain 24hr
in
rain mn
in
humidity
%
barometer
mb
20260901192209 55 180 0.0 0.0 0.00 0.02 0.00 100
20260901191709 55 180 0.0 0.0 0.00 0.02 0.00 100
20260901191209 56 180 0.0 0.0 0.00 0.02 0.00 100
20260901190710 56 180 0.0 0.0 0.00 0.02 0.00 99
20260901190209 56 180 0.0 0.0 0.00 0.02 0.00 99
20260901185709 56 180 0.0 0.0 0.00 0.02 0.00 99
20260901185209 56 180 0.0 0.0 0.00 0.02 0.00 99
20260901184709 57 180 0.0 0.0 0.00 0.02 0.00 98
20260901184209 57 180 0.0 0.0 0.00 0.02 0.00 97
20260901183709 57 180 0.0 0.0 0.00 0.02 0.00 97
20260901183209 58 180 0.0 0.0 0.00 0.02 0.00 96
20260901182709 58 180 0.0 0.0 0.00 0.02 0.00 96
20260901182209 58 180 0.0 0.0 0.00 0.02 0.00 95
20260901181709 59 180 0.0 0.0 0.00 0.02 0.00 94
20260901181209 59 180 0.0 0.0 0.00 0.02 0.00 92
20260901180709 60 180 0.0 0.0 0.00 0.02 0.00 90
20260901180209 61 180 0.0 0.0 0.00 0.02 0.00 88
20260901175709 61 180 0.0 0.0 0.00 0.02 0.00 86
20260901175209 62 180 0.0 0.0 0.00 0.02 0.00 83
20260901174709 63 180 0.0 0.0 0.00 0.12 0.00 81
20260901174209 63 180 0.0 0.0 0.00 0.12 0.00 79
20260901173709 63 180 0.0 0.0 0.00 0.12 0.00 76
20260901173209 64 180 0.0 0.0 0.00 0.12 0.00 72
20260901172709 65 180 0.0 0.0 0.00 0.12 0.00 71
20260901172209 66 180 0.0 0.0 0.00 0.12 0.00 68
20260901171709 67 180 0.0 0.0 0.00 0.12 0.00 66
20260901171209 67 180 0.0 0.0 0.00 0.12 0.00 62
20260901170709 68 180 0.0 0.0 0.00 0.12 0.00 61
20260901170215 68 180 0.0 0.0 0.00 0.12 0.00 58
20260901165709 69 180 0.0 0.0 0.00 0.12 0.00 57
20260901165209 69 180 0.0 0.0 0.00 0.12 0.00 57
20260901164709 70 180 0.0 0.0 0.00 0.17 0.00 51
20260901164209 70 180 0.0 0.0 0.00 0.17 0.00 50
20260901163709 70 180 0.0 3.0 0.00 0.17 0.00 49
20260901163209 70 180 0.0 5.0 0.00 0.17 0.00 49
20260901162709 70 180 4.0 6.0 0.00 0.17 0.00 48
20260901162209 70 180 6.0 6.0 0.00 0.17 0.00 48
20260901161709 71 180 1.0 6.0 0.00 0.17 0.00 48
20260901161209 71 180 6.0 7.0 0.00 0.17 0.00 49
20260901160709 71 180 1.0 4.0 0.00 0.17 0.00 50
20260901160209 72 180 1.0 6.0 0.00 0.17 0.00 48
20260901155709 72 180 1.0 4.0 0.00 0.17 0.00 47
20260901155209 72 180 0.0 1.0 0.00 0.17 0.00 100
20260901154711 72 180 0.0 6.0 0.00 0.32 0.00 47
20260901154209 72 180 3.0 5.0 0.00 0.32 0.00 46
20260901153709 73 180 0.0 9.0 0.00 0.32 0.00 47
20260901153209 73 180 1.0 6.0 0.00 0.32 0.00 44
20260901152709 73 180 1.0 5.0 0.00 0.32 0.00 43
20260901152209 73 180 3.0 9.0 0.00 0.32 0.00 45
20260901151710 73 180 3.0 9.0 0.00 0.32 0.00 44
20260901151209 73 180 0.0 9.0 0.00 0.32 0.00 45
20260901150710 73 180 7.0 9.0 0.00 0.32 0.00 44
20260901150210 74 180 0.0 9.0 0.00 0.32 0.00 44
20260901145709 74 180 0.0 6.0 0.00 0.32 0.00 44
20260901145209 74 180 4.0 8.0 0.00 0.32 0.00 44
20260901144710 74 180 4.0 8.0 0.00 0.33 0.00 43
20260901144209 74 180 3.0 7.0 0.00 0.33 0.00 44
20260901143709 74 180 3.0 9.0 0.00 0.33 0.00 46
20260901143209 73 180 5.0 11.0 0.00 0.33 0.00 44
20260901142709 74 180 4.0 11.0 0.00 0.33 0.00 44
20260901142209 74 180 1.0 7.0 0.00 0.33 0.00 45
20260901141709 74 180 3.0 8.0 0.00 0.33 0.00 46
20260901141210 74 180 1.0 9.0 0.00 0.33 0.00 46
20260901140210 74 180 4.0 13.0 0.00 0.33 0.00 45
20260901135710 74 180 2.0 11.0 0.00 0.33 0.00 45
20260901135210 74 180 1.0 10.0 0.00 0.33 0.00 45
20260901134710 74 180 3.0 12.0 0.00 0.36 0.00 46
20260901134210 74 180 7.0 14.0 0.00 0.36 0.00 46
20260901133710 74 180 4.0 8.0 0.00 0.36 0.00 47
20260901133210 74 180 2.0 14.0 0.00 0.36 0.00 46
20260901132710 75 180 0.0 13.0 0.00 0.36 0.00 46
20260901132210 74 180 1.0 11.0 0.00 0.36 0.00 45
20260901131710 74 180 11.0 11.0 0.00 0.36 0.00 45
20260901131210 74 180 5.0 12.0 0.00 0.36 0.00 44
20260901130710 74 180 1.0 12.0 0.00 0.36 0.00 46
20260901130210 75 180 3.0 10.0 0.00 0.36 0.00 46
20260901125710 75 180 3.0 6.0 0.00 0.36 0.00 44
20260901125210 75 180 3.0 8.0 0.00 0.36 0.00 46
20260901124710 75 180 3.0 15.0 0.00 0.90 0.00 45
20260901124210 75 180 5.0 7.0 0.00 0.90 0.00 48
20260901123710 75 180 7.0 13.0 0.00 0.90 0.00 47
20260901123210 75 180 4.0 14.0 0.00 0.90 0.00 43
20260901122710 75 180 0.0 11.0 0.00 0.90 0.00 44
20260901122210 75 180 1.0 11.0 0.00 0.90 0.00 43
20260901121710 75 180 6.0 14.0 0.00 0.90 0.00 42
20260901121210 75 180 3.0 12.0 0.00 0.90 0.00 45
20260901120710 75 180 4.0 8.0 0.00 0.90 0.00 46
20260901120210 75 180 2.0 10.0 0.00 0.90 0.00 44
20260901115710 75 180 1.0 11.0 0.00 0.90 0.00 48
20260901115210 74 180 0.0 9.0 0.00 0.90 0.00 47
20260901114710 73 180 2.0 13.0 0.00 5.11 0.00 50
20260901114210 74 180 6.0 13.0 0.00 5.11 0.00 52
20260901113710 74 180 1.0 7.0 0.00 5.11 0.00 51
20260901113210 73 180 6.0 6.0 0.00 5.11 0.00 52
20260901112710 73 180 3.0 10.0 0.00 5.11 0.00 51
20260901112210 74 180 3.0 10.0 0.00 5.11 0.00 100
20260901111710 74 180 1.0 9.0 0.00 5.11 0.00 48
20260901111210 74 180 5.0 7.0 0.00 5.11 0.00 48
20260901110710 74 180 1.0 13.0 0.00 5.11 0.00 50
20260901110210 74 180 8.0 12.0 0.00 5.11 0.00 49
20260901105710 74 180 4.0 10.0 0.00 5.11 0.00 49
20260901105210 73 180 3.0 10.0 0.00 5.11 0.00 49
20260901104710 73 180 9.0 14.0 0.00 5.11 0.00 48
20260901104210 74 180 1.0 8.0 0.00 5.11 0.00 49
20260901103710 73 180 0.0 13.0 0.00 5.11 0.00 50
20260901103210 74 180 1.0 7.0 0.00 5.11 0.00 50
20260901102710 75 180 3.0 11.0 0.00 5.11 0.00 48
20260901102210 75 180 5.0 8.0 0.00 5.11 0.00 51
20260901101710 74 180 1.0 7.0 0.00 5.11 0.00 50
20260901101210 74 180 3.0 7.0 0.00 5.11 0.00 52
20260901100710 74 180 2.0 6.0 0.00 5.11 0.00 49
20260901100210 74 180 0.0 8.0 0.00 5.11 0.00 52
20260901095710 73 180 5.0 8.0 0.00 5.11 0.00 55
20260901095210 73 180 5.0 9.0 0.00 5.11 0.00 52
20260901094710 73 180 4.0 7.0 0.00 5.11 0.00 53
20260901094210 74 180 3.0 10.0 0.00 5.11 0.00 53
20260901093710 73 180 2.0 7.0 0.00 5.11 0.00 54
20260901093210 73 180 2.0 7.0 0.00 5.11 0.00 53
20260901092710 73 180 2.0 5.0 0.00 5.11 0.00 52
20260901092210 73 180 2.0 6.0 0.00 5.11 0.00 53
20260901091710 73 180 4.0 7.0 0.00 5.11 0.00 53
20260901091210 72 180 5.0 8.0 0.00 5.11 0.00 53
20260901090710 72 180 4.0 8.0 0.00 5.11 0.00 55
20260901090210 72 180 6.0 9.0 0.00 5.11 0.00 56
20260901085710 72 180 2.0 5.0 0.00 5.11 0.00 57
20260901085210 72 180 1.0 5.0 0.00 5.11 0.00 61
20260901084710 72 180 0.0 6.0 0.00 5.11 5.11 58
20260901084210 72 180 5.0 7.0 0.00 5.11 5.11 57
20260901083710 73 180 0.0 0.0 0.00 5.11 5.11 64
20260901083210 71 180 0.0 3.0 0.00 5.11 5.11 64
20260901082710 71 180 1.0 5.0 0.00 5.11 5.11 65
20260901082211 70 180 2.0 3.0 0.00 5.11 5.11 70
20260901081710 70 180 2.0 8.0 0.00 5.11 5.11 70
20260901081210 70 180 1.0 11.0 0.00 5.11 5.11 71
20260901080710 70 180 4.0 8.0 0.00 5.11 5.11 82
20260901080210 69 180 2.0 8.0 0.00 5.11 5.11 78
20260901075711 69 180 0.0 5.0 0.00 5.11 5.11 92
20260901075211 69 180 0.0 2.0 0.00 5.11 5.11 95
20260901074711 68 180 2.0 5.0 0.00 5.11 5.11 91
20260901074211 67 180 0.0 6.0 0.00 5.11 5.11 96
20260901073711 66 180 0.0 3.0 0.00 5.11 5.11 100
20260901073211 66 180 1.0 1.0 0.00 5.11 5.11 100
20260901072711 65 180 0.0 4.0 0.00 5.11 5.11 100
20260901072211 65 180 0.0 0.0 0.00 5.11 5.11 100
20260901071711 64 180 0.0 0.0 0.00 5.11 5.11 100
20260901071211 64 180 0.0 3.0 0.00 5.11 5.11 100
20260901070711 64 180 0.0 0.0 0.00 5.11 5.11 100
20260901070211 63 180 0.0 0.0 0.00 5.11 5.11 100
20260901065711 63 180 0.0 0.0 0.00 5.11 5.11 100
20260901065211 63 180 0.0 0.0 0.00 5.11 5.11 100
20260901064711 63 180 0.0 0.0 0.00 5.11 5.11 100
20260901064211 62 180 0.0 0.0 0.00 5.11 5.11 100
20260901063711 62 180 0.0 0.0 0.00 5.11 5.11 100
20260901063211 62 180 0.0 0.0 0.00 5.11 5.11 100
20260901062711 62 180 0.0 0.0 0.00 5.11 5.11 100
20260901062211 62 180 0.0 0.0 0.00 5.11 5.11 100
20260901061711 62 180 0.0 0.0 0.00 5.11 5.11 100
20260901061211 62 180 0.0 0.0 0.00 5.11 5.11 100
20260901060711 62 180 0.0 0.0 0.01 5.11 5.11 100
20260901060211 62 180 0.0 0.0 0.01 5.11 5.11 100
20260901055711 61 180 0.0 0.0 0.01 5.11 5.11 100
20260901055211 61 180 0.0 0.0 0.01 5.11 5.11 100
20260901054711 61 180 0.0 0.0 0.01 5.11 5.11 100
20260901054211 61 180 0.0 0.0 0.01 5.11 5.11 100
20260901053711 62 180 0.0 0.0 0.01 5.11 5.11 100
20260901053211 61 180 0.0 0.0 0.01 5.11 5.11 100
20260901052711 61 180 0.0 0.0 0.01 5.11 5.11 100
20260901052211 61 180 0.0 0.0 0.02 5.11 5.11 100
20260901051711 61 180 0.0 0.0 0.02 5.11 5.11 100
20260901051211 61 180 0.0 0.0 0.02 5.11 5.11 100
20260901050711 60 180 0.0 0.0 0.01 5.10 5.10 100
20260901050211 60 180 0.0 0.0 0.01 5.10 5.10 100
20260901045711 61 180 0.0 0.0 0.01 5.10 5.10 100
20260901045211 61 180 0.0 0.0 0.01 5.10 5.10 100
20260901044711 60 180 0.0 0.0 0.01 5.10 5.10 100
20260901044214 61 180 0.0 0.0 0.01 5.10 5.10 100
20260901043711 61 180 0.0 0.0 0.01 5.10 5.10 100
20260901043211 60 180 0.0 0.0 0.01 5.10 5.10 100
20260901042711 60 180 0.0 0.0 0.01 5.10 5.10 100
20260901042211 60 180 0.0 0.0 0.00 5.09 5.09 100
20260901041711 61 180 0.0 0.0 0.00 5.09 5.09 100
20260901041211 60 180 0.0 0.0 0.00 5.09 5.09 100
20260901040711 60 180 0.0 0.0 0.00 5.09 5.09 100
20260901040211 60 180 0.0 0.0 0.00 5.09 5.09 100
20260901035711 60 180 0.0 0.0 0.00 5.09 5.09 100
20260901035211 60 180 0.0 0.0 0.00 5.09 5.09 100
20260901034711 60 180 0.0 0.0 0.00 5.10 5.09 100
20260901034211 60 180 0.0 0.0 0.00 5.10 5.09 100
20260901033711 61 180 0.0 0.0 0.00 5.10 5.09 100
20260901033212 60 180 0.0 0.0 0.00 5.10 5.09 100
20260901032711 61 180 0.0 0.0 0.00 5.10 5.09 100
20260901032211 60 180 0.0 0.0 0.00 5.10 5.09 100
20260901031711 60 180 0.0 0.0 0.00 5.10 5.09 100
20260901031211 60 180 0.0 0.0 0.00 5.10 5.09 100
20260901030711 60 180 0.0 0.0 0.00 5.10 5.09 100
20260901030211 60 180 0.0 0.0 0.00 5.10 5.09 100
20260901025711 60 180 0.0 0.0 0.00 5.10 5.09 100
20260901025211 61 180 0.0 0.0 0.00 5.10 5.09 100
20260901024711 61 180 0.0 0.0 0.00 5.10 5.09 100
20260901024211 60 180 0.0 0.0 0.00 5.10 5.09 100
20260901023711 60 180 0.0 0.0 0.00 5.10 5.09 100
20260901023211 61 180 0.0 0.0 0.00 5.10 5.09 100
20260901022711 61 180 0.0 0.0 0.00 5.10 5.09 100
20260901022211 61 180 0.0 0.0 0.00 5.10 5.09 100
20260901021711 60 180 0.0 0.0 0.00 5.10 5.09 100
20260901021211 60 180 0.0 0.0 0.00 5.10 5.09 100
20260901020711 61 180 0.0 0.0 0.00 5.10 5.09 100
20260901020211 61 180 0.0 0.0 0.00 5.10 5.09 100
20260901015711 60 180 0.0 0.0 0.00 5.10 5.09 100
20260901015211 60 180 0.0 0.0 0.00 5.10 5.09 100
20260901014711 61 180 0.0 0.0 0.00 5.10 5.09 100
20260901014211 60 180 0.0 0.0 0.00 5.10 5.09 100
20260901013711 61 180 0.0 0.0 0.00 5.10 5.09 100
20260901013211 60 180 0.0 0.0 0.00 5.10 5.09 100
20260901012711 61 180 0.0 0.0 0.00 5.10 5.09 100
20260901012211 60 180 0.0 0.0 0.00 5.10 5.09 100
20260901011711 60 180 0.0 0.0 0.00 5.10 5.09 100
20260901011212 60 180 0.0 0.0 0.00 5.10 5.09 100
20260901010712 60 180 0.0 0.0 0.00 5.10 5.09 100
20260901010212 60 180 0.0 0.0 0.00 5.10 5.09 100
20260901005712 60 180 0.0 0.0 0.00 5.10 5.09 100
20260901005212 61 180 0.0 0.0 0.00 5.10 5.09 100
20260901004712 61 180 0.0 0.0 0.00 5.10 5.09 100
20260901004212 61 180 0.0 0.0 0.00 5.10 5.09 100
20260901003712 61 180 0.0 0.0 0.00 5.10 5.09 100
20260901003212 61 180 0.0 0.0 0.00 5.10 5.09 100
20260901002712 61 180 0.0 0.0 0.00 5.10 5.09 100
20260901002212 61 180 0.0 0.0 0.00 5.10 5.09 100
20260901001712 61 180 0.0 0.0 0.00 5.10 5.09 100
20260901001212 61 180 0.0 0.0 0.00 5.10 5.09 100
20260901000712 61 180 0.0 0.0 0.00 5.10 5.09 100
20260901000212 61 180 0.0 0.0 0.00 5.10 5.09 100
20260831235712 61 180 0.0 0.0 0.00 5.10 5.09 100
20260831235212 61 180 0.0 0.0 0.00 5.10 5.09 100
20260831234712 61 180 0.0 0.0 0.00 5.10 5.09 100
20260831234212 61 180 0.0 0.0 0.00 5.10 5.09 100
20260831233712 61 180 0.0 0.0 0.00 5.10 5.09 100
20260831233212 61 180 0.0 0.0 0.00 5.10 5.09 100
20260831232712 61 180 0.0 0.0 0.00 5.10 5.09 100
20260831232212 61 180 0.0 0.0 0.00 5.10 5.09 100
20260831231712 61 180 0.0 0.0 0.00 5.10 5.09 100
20260831231212 61 180 0.0 0.0 0.00 5.10 5.09 100
20260831230712 61 180 0.0 0.0 0.00 5.10 5.09 100
20260831230212 61 180 0.0 0.0 0.00 5.10 5.09 100
20260831225712 61 180 0.0 0.0 0.00 5.10 5.09 100
20260831225212 61 180 0.0 0.0 0.00 5.10 5.09 100
20260831224712 62 180 0.0 0.0 0.00 5.10 5.09 100
20260831224212 62 180 0.0 0.0 0.00 5.10 5.09 100
20260831223712 61 180 0.0 0.0 0.00 5.10 5.09 100
20260831223212 62 180 0.0 0.0 0.00 5.10 5.09 100
20260831222712 62 180 0.0 0.0 0.00 5.10 5.09 100
20260831222212 62 180 0.0 0.0 0.00 5.10 5.09 100
20260831221712 62 180 0.0 0.0 0.00 5.10 5.09 100
20260831221212 62 180 0.0 0.0 0.00 5.10 5.09 100
20260831220712 62 180 0.0 0.0 0.00 5.10 5.09 100
20260831220212 62 180 0.0 0.0 0.00 5.10 5.09 100
20260831215712 62 180 0.0 0.0 0.00 5.10 5.09 100
20260831215212 62 180 0.0 0.0 0.00 5.10 5.09 100
20260831214712 62 180 0.0 0.0 0.00 5.10 5.09 100
20260831214212 62 180 0.0 0.0 0.00 5.10 5.09 100
20260831213712 62 180 0.0 0.0 0.00 5.10 5.09 100
20260831213212 62 180 0.0 0.0 0.00 5.10 5.09 100
20260831212712 62 180 0.0 0.0 0.00 5.10 5.09 100
20260831212212 62 180 0.0 0.0 0.00 5.10 5.09 100
20260831211712 63 180 0.0 0.0 0.00 5.10 5.09 100
20260831211212 62 180 0.0 0.0 0.00 5.10 5.09 100
20260831210712 63 180 0.0 0.0 0.00 5.10 5.09 100
20260831210212 63 180 0.0 0.0 0.00 5.10 5.09 100
20260831205712 63 180 0.0 0.0 0.00 5.10 5.09 100
20260831205212 63 180 0.0 0.0 0.00 5.10 5.09 100
20260831204712 63 180 0.0 0.0 0.00 5.10 5.09 100
20260831204212 63 180 0.0 0.0 0.00 5.10 5.09 100
20260831203712 63 180 0.0 0.0 0.00 5.10 5.09 100
20260831203212 63 180 0.0 0.0 0.00 5.10 5.09 100
20260831202712 63 180 0.0 2.0 0.00 5.10 5.09 100
20260831202212 63 180 1.0 3.0 0.00 5.10 5.09 100
20260831201712 63 180 0.0 2.0 0.00 5.10 5.09 100
20260831201212 63 180 0.0 0.0 0.00 5.10 5.09 100
20260831200712 63 180 0.0 0.0 0.00 5.10 5.09 100
20260831200212 63 180 0.0 2.0 0.00 5.10 5.09 100
20260831195712 63 180 0.0 4.0 0.00 5.10 5.09 100
20260831195212 63 180 0.0 3.0 0.00 5.10 5.09 100
20260831194712 63 180 0.0 4.0 0.00 5.10 5.09 100
20260831194212 63 180 0.0 0.0 0.00 5.10 5.09 100
20260831193712 63 180 0.0 0.0 0.00 5.10 5.09 100
20260831193212 63 180 0.0 0.0 0.00 5.10 5.09 100
20260831192712 63 180 0.0 0.0 0.00 5.10 5.09 100